Terminal Aerodrome Forecast
Issued by NWS Bismarck, ND

Home | Current Version | Previous Version | Graphics & Text | Print | Product List | Glossary On
Versions: 1 2 3 4 5 6 7 8 9 10 11 12 13
000
FTUS43 KBIS 311100
TAFISN
TAF
KISN 311131Z 3112/0112 31006KT P6SM SCT004
      TEMPO 3112/3114 3SM BR
     FM312100 32009KT P6SM SCT070=

USA.gov is the U.S. government's official web portal to all federal, state and local government web resources and services.